Queralbs





Hora UTC 14:15
Temperatura 15.5 ºC
Humitat 53.0 %
Pressió 1018.6 hPa
Pluja 0.2 mm
Velocitat vent 3.2 km/h
Direcció vent SSW
Radiació solar 0.0 W/m²

Dades diàries 2021-09-19



Hora UTC (hivern +1h; estiu +2h)
Temperatura (ºC) Humitat (%) Pressió (hPa) Velocitat vent (km/h) Precipitació (mm) Radiació solar (W/m²)
Hora UTC Aire Humitat Pressió Vel. Dir. Vel. Max Dir. Intent. màx 5 min. Rad. Sol.
00:05 9.2 72.0 1015.3 0.0 SW 0.0 0.0 0.0
00:10 9.1 73.0 1015.2 1.6 SW 3.2 0.0 0.0
00:15 8.9 73.0 1015.2 0.0 SW 3.2 0.0 0.0
00:20 8.8 72.0 1015.2 0.0 SW 3.2 0.0 0.0
00:25 8.7 72.0 1015.3 0.0 SW 3.2 0.0 0.0
00:30 8.7 73.0 1015.3 0.0 SW 3.2 0.0 0.0
00:35 8.6 73.0 1015.2 1.6 SW 3.2 0.0 0.0
00:40 8.5 73.0 1015.2 0.0 SW 3.2 0.0 0.0
00:45 8.5 73.0 1015.1 0.0 SW 0.0 0.0 0.0
00:50 8.5 73.0 1015.1 4.8 SW 4.8 0.0 0.0
00:55 8.3 73.0 1015.2 0.0 SW 4.8 0.0 0.0
01:00 8.2 73.0 1015.1 0.0 SW 4.8 0.2 0.0
01:05 8.1 73.0 1015.2 3.2 SW 3.2 0.0 0.0
01:10 8.0 73.0 1015.0 1.6 SW 4.8 0.0 0.0
01:15 7.9 73.0 1015.1 1.6 SW 4.8 0.0 0.0
01:20 7.9 73.0 1015.2 3.2 WSW 6.4 0.0 0.0
01:25 7.9 73.0 1015.2 0.0 WSW 6.4 0.0 0.0
01:30 7.8 73.0 1015.3 1.6 WSW 3.2 0.0 0.0
01:35 7.8 73.0 1015.3 0.0 WSW 4.8 0.0 0.0
01:40 7.7 73.0 1015.3 0.0 WSW 4.8 0.0 0.0
01:45 7.6 73.0 1015.3 1.6 WSW 3.2 0.0 0.0
01:50 7.7 73.0 1015.2 0.0 WSW 3.2 0.0 0.0
01:55 7.7 73.0 1015.3 1.6 WSW 4.8 0.0 0.0
02:00 7.7 73.0 1015.3 0.0 WSW 4.8 0.0 0.0
02:05 7.6 73.0 1015.4 0.0 WSW 3.2 0.0 0.0
02:05 7.6 73.0 1015.5 0.0 WSW 0.0 0.0 0.0
02:15 7.6 73.0 1015.4 0.0 WSW 0.0 0.0 0.0
02:20 7.7 73.0 1015.5 0.0 WSW 0.0 0.0 0.0
02:25 7.6 73.0 1015.7 0.0 WSW 0.0 0.0 0.0
02:30 7.5 73.0 1015.6 0.0 WSW 0.0 0.0 0.0
02:30 7.4 73.0 1015.5 1.6 WSW 6.4 0.0 0.0
02:40 7.4 73.0 1015.5 3.2 WSW 6.4 0.0 0.0
02:45 7.4 73.0 1015.5 0.0 WSW 3.2 0.0 0.0
02:50 7.3 73.0 1015.6 0.0 WSW 1.6 0.0 0.0
02:55 7.3 73.0 1015.7 0.0 WSW 1.6 0.0 0.0
03:00 7.3 73.0 1015.7 0.0 WSW 1.6 0.0 0.0
03:05 7.3 74.0 1015.6 3.2 WSW 4.8 0.0 0.0
03:10 7.3 74.0 1015.5 1.6 WSW 4.8 0.0 0.0
03:15 7.3 73.0 1015.6 1.6 WSW 4.8 0.0 0.0
03:20 7.3 73.0 1015.6 0.0 WSW 4.8 0.0 0.0
03:25 7.3 73.0 1015.6 0.0 WSW 3.2 0.0 0.0
03:30 7.2 73.0 1015.4 0.0 WSW 3.2 0.0 0.0
03:35 7.2 73.0 1015.6 1.6 WSW 3.2 0.0 0.0
03:40 7.2 73.0 1015.6 0.0 WSW 3.2 0.0 0.0
03:45 7.1 73.0 1015.5 1.6 WSW 4.8 0.0 0.0
03:50 7.0 73.0 1015.6 0.0 WSW 4.8 0.0 0.0
03:55 6.9 74.0 1015.6 0.0 WSW 1.6 0.0 0.0
04:00 6.9 73.0 1015.7 3.2 WSW 3.2 0.0 0.0
04:05 6.9 74.0 1015.7 0.0 WSW 3.2 0.0 0.0
04:10 6.9 74.0 1015.8 1.6 WSW 3.2 0.0 0.0
04:15 6.8 74.0 1015.7 0.0 WSW 3.2 0.0 0.0
04:20 6.8 74.0 1015.8 0.0 WSW 4.8 0.0 0.0
04:25 6.9 74.0 1015.8 1.6 WSW 4.8 0.0 0.0
04:30 6.9 74.0 1015.8 3.2 WSW 4.8 0.0 0.0
04:35 6.9 74.0 1015.9 1.6 WSW 4.8 0.0 0.0
04:40 6.8 74.0 1016.0 0.0 WSW 4.8 0.0 0.0
04:45 6.8 74.0 1016.1 0.0 WSW 4.8 0.0 0.0
04:50 6.7 74.0 1016.3 3.2 WSW 4.8 0.0 0.0
04:55 6.8 74.0 1016.3 0.0 WSW 4.8 0.0 0.0
05:00 6.7 73.0 1016.3 0.0 WSW 3.2 0.0 0.0
05:05 6.6 73.0 1016.4 3.2 WSW 3.2 0.0 0.0
05:10 6.6 74.0 1016.4 0.0 WSW 3.2 0.0 0.0
05:15 6.6 74.0 1016.4 0.0 WSW 3.2 0.0 0.0
05:20 6.6 74.0 1016.4 0.0 WSW 0.0 0.0 0.0
05:25 6.6 74.0 1016.3 0.0 WSW 0.0 0.0 0.0
05:30 6.5 74.0 1016.4 0.0 WSW 0.0 0.0 0.0
05:35 6.4 74.0 1016.4 0.0 WSW 0.0 0.0 0.0
05:40 6.4 74.0 1016.4 3.2 WSW 4.8 0.0 0.0
05:45 6.4 74.0 1016.6 4.8 WSW 4.8 0.0 0.0
05:50 6.4 74.0 1016.6 3.2 WSW 6.4 0.0 0.0
05:55 6.3 74.0 1016.4 3.2 W 6.4 0.0 0.0
06:00 6.4 74.0 1016.6 4.8 W 6.4 0.0 0.0
06:05 6.4 74.0 1016.7 3.2 W 6.4 0.0 0.0
06:10 6.6 74.0 1016.8 4.8 W 6.4 0.0 0.0
06:15 6.6 74.0 1016.8 0.0 W 9.7 0.0 0.0
06:20 6.6 74.0 1017.0 1.6 W 4.8 0.0 0.0
06:25 6.6 74.0 1017.2 1.6 W 4.8 0.0 0.0
06:30 6.5 74.0 1017.1 1.6 W 4.8 0.0 0.0
06:35 6.6 74.0 1017.1 6.4 W 9.7 0.0 0.0
06:40 6.6 74.0 1017.0 3.2 W 9.7 0.0 0.0
06:45 6.9 74.0 1017.1 1.6 W 4.8 0.0 0.0
06:50 7.6 74.0 1017.0 1.6 W 3.2 0.0 0.0
06:55 8.0 74.0 1017.2 1.6 W 4.8 0.0 0.0
07:00 8.4 74.0 1017.3 0.0 W 4.8 0.0 0.0
07:05 8.6 73.0 1017.4 3.2 W 4.8 0.0 0.0
07:10 8.7 73.0 1017.5 0.0 W 4.8 0.0 0.0
07:15 8.9 73.0 1017.5 3.2 W 3.2 0.0 0.0
07:20 9.2 73.0 1017.6 1.6 W 3.2 0.0 0.0
07:25 9.4 72.0 1017.6 4.8 NW 6.4 0.0 0.0
07:30 9.4 72.0 1017.7 3.2 NW 6.4 0.0 0.0
07:35 9.7 72.0 1017.7 0.0 NW 4.8 0.0 0.0
07:40 9.9 71.0 1017.8 1.6 NNW 4.8 0.0 0.0
07:45 10.1 71.0 1018.0 3.2 NNW 4.8 0.0 0.0
07:50 10.5 71.0 1018.1 3.2 WNW 4.8 0.0 0.0
07:55 10.4 71.0 1018.0 1.6 WNW 4.8 0.0 0.0
07:55 10.7 71.0 1018.2 3.2 WNW 4.8 0.0 0.0
08:05 10.7 69.0 1018.4 3.2 ENE 8.0 0.0 0.0
08:10 10.6 67.0 1018.4 4.8 ENE 8.0 0.0 0.0
08:15 11.2 69.0 1018.3 4.8 ENE 6.4 0.0 0.0
08:20 11.8 66.0 1018.5 3.2 ENE 6.4 0.0 0.0
08:25 12.1 67.0 1018.6 3.2 E 6.4 0.0 0.0
08:30 12.3 67.0 1018.7 1.6 E 6.4 0.0 0.0
08:35 12.4 64.0 1018.6 3.2 E 4.8 0.0 0.0
08:40 12.7 66.0 1018.8 3.2 E 6.4 0.0 0.0
08:45 12.8 65.0 1018.7 3.2 ESE 6.4 0.0 0.0
08:50 12.8 62.0 1018.9 3.2 ESE 6.4 0.0 0.0
08:55 12.8 61.0 1018.7 3.2 ESE 6.4 0.0 0.0
09:00 13.1 59.0 1018.7 3.2 ESE 6.4 0.0 0.0
09:05 13.1 59.0 1018.8 3.2 ESE 6.4 0.0 0.0
09:10 13.4 58.0 1018.6 3.2 ESE 6.4 0.0 0.0
09:15 13.8 56.0 1018.7 4.8 ESE 4.8 0.0 0.0
09:20 14.0 54.0 1018.9 6.4 ESE 6.4 0.0 0.0
09:25 14.3 54.0 1019.0 4.8 ESE 9.7 0.0 0.0
09:30 14.7 54.0 1019.0 6.4 ESE 6.4 0.0 0.0
09:35 14.9 53.0 1018.9 3.2 ESE 6.4 0.0 0.0
09:40 15.1 49.0 1018.9 6.4 ESE 9.7 0.0 0.0
09:45 15.1 48.0 1019.0 1.6 ESE 9.7 0.0 0.0
09:45 15.2 50.0 1018.9 4.8 ESE 9.7 0.0 0.0
09:55 15.6 46.0 1018.8 3.2 ESE 9.7 0.0 0.0
10:00 15.7 46.0 1018.9 4.8 SE 11.3 0.0 0.0
10:05 15.8 49.0 1018.9 1.6 SE 11.3 0.0 0.0
10:10 16.1 48.0 1018.9 3.2 SE 8.0 0.0 0.0
10:15 16.3 48.0 1019.0 4.8 SE 8.0 0.0 0.0
10:20 16.7 45.0 1019.1 8.0 SSE 11.3 0.0 0.0
10:25 16.8 47.0 1018.9 6.4 SSE 11.3 0.0 0.0
10:30 16.8 48.0 1018.8 11.3 SSE 12.9 0.0 0.0
10:35 16.8 45.0 1018.9 8.0 S 11.3 0.0 0.0
10:40 16.9 49.0 1018.9 9.7 SSE 12.9 0.0 0.0
10:45 17.2 48.0 1018.9 8.0 S 12.9 0.0 0.0
10:50 17.2 48.0 1019.0 8.0 S 11.3 0.0 0.0
10:55 17.2 47.0 1019.0 11.3 SSE 12.9 0.0 0.0
11:00 17.2 48.0 1018.9 8.0 S 12.9 0.0 0.0
11:05 17.0 47.0 1018.8 3.2 S 12.9 0.0 0.0
11:10 17.1 48.0 1018.8 8.0 SSE 16.1 0.0 0.0
11:15 17.4 47.0 1018.8 3.2 SSE 16.1 0.0 0.0
11:20 17.4 47.0 1018.8 6.4 S 16.1 0.0 0.0
11:25 17.6 47.0 1018.8 9.7 S 14.5 0.0 0.0
11:30 17.6 46.0 1018.8 4.8 SSE 14.5 0.0 0.0
11:35 17.7 48.0 1018.7 8.0 SSE 16.1 0.0 0.0
11:40 17.9 49.0 1018.9 12.9 SSE 16.1 0.0 0.0
11:45 18.0 47.0 1018.8 8.0 SSE 16.1 0.0 0.0
11:50 18.2 47.0 1018.7 6.4 SSE 12.9 0.0 0.0
11:50 18.4 47.0 1018.7 9.7 SSE 16.1 0.0 0.0
12:00 18.4 48.0 1018.8 11.3 ESE 19.3 0.0 0.0
12:05 18.4 47.0 1018.8 12.9 SSE 19.3 0.0 0.0
12:10 18.3 48.0 1018.9 11.3 S 19.3 0.0 0.0
12:15 18.1 46.0 1018.9 8.0 SSE 17.7 0.0 0.0
12:20 18.1 47.0 1018.9 9.7 SSE 20.9 0.0 0.0
12:25 18.1 48.0 1018.9 11.3 SE 20.9 0.0 0.0
12:30 18.1 47.0 1018.9 4.8 S 17.7 0.0 0.0
12:35 17.9 47.0 1018.9 3.2 SW 17.7 0.0 0.0
12:40 17.7 48.0 1018.9 11.3 S 17.7 0.0 0.0
12:45 17.7 47.0 1018.9 9.7 SSE 16.1 0.0 0.0
12:50 17.8 48.0 1018.9 12.9 ESE 19.3 0.0 0.0
12:55 17.9 49.0 1018.9 11.3 SSE 19.3 0.0 0.0
13:00 17.7 48.0 1018.8 4.8 SSW 19.3 0.0 0.0
13:05 17.8 49.0 1019.0 11.3 S 19.3 0.0 0.0
13:10 17.8 48.0 1018.8 14.5 SE 17.7 0.0 0.0
13:10 17.7 48.0 1018.9 8.0 S 17.7 0.0 0.0
13:20 17.9 50.0 1018.8 6.4 SE 19.3 0.0 0.0
13:25 17.8 49.0 1018.7 8.0 SE 19.3 0.0 0.0
13:30 17.4 49.0 1018.8 6.4 SE 16.1 0.0 0.0
13:35 16.8 51.0 1018.7 8.0 SSE 16.1 0.0 0.0
13:40 16.4 52.0 1018.7 8.0 SSE 17.7 0.0 0.0
13:45 16.2 53.0 1018.4 3.2 SE 17.7 0.0 0.0
13:50 16.0 54.0 1018.6 1.6 SSE 11.3 0.0 0.0
13:55 15.9 53.0 1018.7 4.8 S 11.3 0.0 0.0
14:00 15.8 54.0 1018.5 4.8 S 11.3 0.0 0.0
14:05 15.5 54.0 1018.6 9.7 S 14.5 0.0 0.0
14:10 15.4 53.0 1018.5 4.8 SSW 14.5 0.0 0.0
14:15 15.5 53.0 1018.6 3.2 SSW 12.9 0.0 0.0
Màxima 18.4 74.0 1019.1 14.5 SE 20.9 0.2 0.0
Mínima 6.3 45.0 1015.0
Total 0.2